Time,TemperatureF,DewpointF,PressureIn,WindDirection,WindDirectionDegrees,WindSpeedMPH,WindSpeedGustMPH,Humidity,HourlyPrecipIn,Conditions,Clouds,dailyrainin,SolarRadiationWatts/m^2,SoftwareType,DateUTC
2013-03-18 17:09:00,56.1,34.5,29.88,NW,315,10.4,11.4,44,0.00,BKN,OVC,0.00,100.0,WeatherDisplay:10.37,2013-03-18 22:09:00,
2013-03-18 17:14:00,55.4,33.8,29.85,WNW,292,11.5,11.5,44,0.00,CLR,OVC,0.00,0.0,WeatherDisplay:10.37,2013-03-18 22:14:00,
2013-03-18 17:19:00,55.8,34.2,29.85,WNW,292,13.8,13.8,44,0.00,CLR,OVC,0.00,0.0,WeatherDisplay:10.37,2013-03-18 22:19:00,
2013-03-18 17:24:00,56.8,35.1,29.85,NNE,22,10.4,10.4,44,0.00,CLR,OVC,0.00,0.0,WeatherDisplay:10.37,2013-03-18 22:24:00,
2013-03-18 17:29:00,56.8,35.1,29.88,NW,315,12.7,12.7,44,0.00,CLR,OVC,0.00,0.0,WeatherDisplay:10.37,2013-03-18 22:29:00,
2013-03-18 17:34:00,56.3,34.6,29.88,WNW,292,15.6,15.6,44,0.00,CLR,OVC,0.00,0.0,WeatherDisplay:10.37,2013-03-18 22:34:00,
2013-03-18 17:39:00,56.1,33.9,29.88,West,270,12.7,12.7,43,0.00,CLR,OVC,0.00,0.0,WeatherDisplay:10.37,2013-03-18 22:39:00,
2013-03-18 17:44:00,55.6,33.4,29.88,NW,315,16.1,16.1,43,0.00,CLR,OVC,0.00,0.0,WeatherDisplay:10.37,2013-03-18 22:44:00,
2013-03-18 17:49:00,55.4,33.3,29.88,WNW,292,11.5,11.5,43,0.00,CLR,OVC,0.00,0.0,WeatherDisplay:10.37,2013-03-18 22:49:00,
2013-03-18 17:54:00,56.8,34.6,29.88,NNW,338,9.2,9.2,43,0.00,CLR,OVC,0.00,0.0,WeatherDisplay:10.37,2013-03-18 22:54:00,
2013-03-18 17:59:00,55.9,33.7,29.88,NW,315,13.8,13.8,43,0.00,CLR,OVC,0.00,0.0,WeatherDisplay:10.37,2013-03-18 22:59:00,
2013-03-18 18:04:00,56.3,34.1,29.88,NNW,338,10.4,10.4,43,0.00,CLR,OVC,0.00,0.0,WeatherDisplay:10.37,2013-03-18 23:04:00,
2013-03-18 18:09:00,56.7,34.4,29.88,NNW,338,10.0,10.0,43,0.00,CLR,OVC,0.00,0.0,WeatherDisplay:10.37,2013-03-18 23:09:00,
2013-03-18 18:14:00,55.6,33.4,29.91,WNW,292,8.1,8.1,43,0.00,CLR,OVC,0.00,0.0,WeatherDisplay:10.37,2013-03-18 23:14:00,
2013-03-18 18:19:00,55.2,33.7,29.91,NNW,338,11.5,11.5,44,0.00,CLR,OVC,0.00,0.0,WeatherDisplay:10.37,2013-03-18 23:19:00,
2013-03-18 18:24:00,53.2,31.9,29.91,NNW,338,8.1,8.1,44,0.00,CLR,OVC,0.00,0.0,WeatherDisplay:10.37,2013-03-18 23:24:00,
2013-03-18 18:29:00,53.8,32.4,29.91,WNW,292,9.2,9.2,44,0.00,CLR,OVC,0.00,0.0,WeatherDisplay:10.37,2013-03-18 23:29:00,
2013-03-18 18:34:00,54.5,33.0,29.91,NW,315,10.2,10.2,44,0.00,CLR,OVC,0.00,0.0,WeatherDisplay:10.37,2013-03-18 23:34:00,
2013-03-18 18:39:00,52.7,31.4,29.91,WNW,292,10.4,10.4,44,0.00,CLR,OVC,0.00,0.0,WeatherDisplay:10.37,2013-03-18 23:39:00,
2013-03-18 18:44:00,52.7,31.4,29.94,WNW,292,9.2,9.2,44,0.00,CLR,OVC,0.00,0.0,WeatherDisplay:10.37,2013-03-18 23:44:00,
2013-03-18 18:49:00,51.6,30.9,29.94,NW,315,8.1,8.1,45,0.00,CLR,OVC,0.00,0.0,WeatherDisplay:10.37,2013-03-18 23:49:00,
2013-03-18 18:54:00,51.1,30.5,29.94,WNW,292,5.8,5.8,45,0.00,CLR,OVC,0.00,0.0,WeatherDisplay:10.37,2013-03-18 23:54:00,
2013-03-18 18:59:00,51.1,30.5,29.94,WNW,292,8.5,8.5,45,0.00,CLR,OVC,0.00,0.0,WeatherDisplay:10.37,2013-03-18 23:59:00,
2013-03-18 19:04:00,50.5,30.0,29.94,WSW,248,5.6,5.6,45,0.00,CLR,OVC,0.00,0.0,WeatherDisplay:10.37,2013-03-19 00:04:00,
2013-03-18 19:09:00,50.2,29.6,29.94,WNW,292,6.9,6.9,45,0.00,CLR,OVC,0.00,0.0,WeatherDisplay:10.37,2013-03-19 00:09:00,
2013-03-18 19:14:00,50.0,29.5,29.94,WNW,292,4.6,4.6,45,0.00,CLR,OVC,0.00,0.0,WeatherDisplay:10.37,2013-03-19 00:14:00,
2013-03-18 19:19:00,49.6,29.7,29.94,West,270,4.6,4.6,46,0.00,CLR,OVC,0.00,0.0,WeatherDisplay:10.37,2013-03-19 00:19:00,
2013-03-18 19:24:00,49.3,29.4,29.94,WNW,292,4.3,4.3,46,0.00,CLR,OVC,0.00,0.0,WeatherDisplay:10.37,2013-03-19 00:24:00,
2013-03-18 19:29:00,49.1,29.2,29.94,WNW,292,3.5,3.5,46,0.00,CLR,OVC,0.00,0.0,WeatherDisplay:10.37,2013-03-19 00:29:00,
2013-03-18 19:35:00,49.1,29.2,29.94,WNW,292,3.5,3.5,46,0.00,CLR,OVC,0.00,0.0,WeatherDisplay:10.37,2013-03-19 00:35:00,
2013-03-18 19:40:00,47.7,28.4,29.94,West,270,3.5,3.5,47,0.00,CLR,OVC,0.00,0.0,WeatherDisplay:10.37,2013-03-19 00:40:00,
2013-03-18 19:45:00,47.3,28.6,29.94,West,270,2.3,2.3,48,0.00,CLR,OVC,0.00,0.0,WeatherDisplay:10.37,2013-03-19 00:45:00,
2013-03-18 19:50:00,46.4,27.8,29.94,West,270,1.6,1.6,48,0.00,CLR,OVC,0.00,0.0,WeatherDisplay:10.37,2013-03-19 00:50:00,
2013-03-18 19:55:00,45.5,27.4,29.94,West,270,0.0,0.0,49,0.00,CLR,OVC,0.00,0.0,WeatherDisplay:10.37,2013-03-19 00:55:00,
2013-03-18 20:00:00,44.4,26.9,29.97,West,270,0.0,0.0,50,0.00,CLR,OVC,0.00,0.0,WeatherDisplay:10.37,2013-03-19 01:00:00,
2013-03-18 20:05:00,43.3,25.9,29.97,West,270,2.3,2.3,50,0.00,CLR,OVC,0.00,0.0,WeatherDisplay:10.37,2013-03-19 01:05:00,
2013-03-18 20:10:00,43.0,26.1,29.97,West,270,0.0,0.0,51,0.00,CLR,OVC,0.00,0.0,WeatherDisplay:10.37,2013-03-19 01:10:00,
2013-03-18 20:15:00,42.4,26.0,29.94,West,270,1.1,0.0,52,0.00,CLR,OVC,0.00,0.0,WeatherDisplay:10.37,2013-03-19 01:15:00,
2013-03-18 20:20:00,41.7,25.8,29.94,West,270,0.0,0.0,53,0.00,CLR,OVC,0.00,0.0,WeatherDisplay:10.37,2013-03-19 01:20:00,
2013-03-18 20:25:00,41.0,25.2,29.94,West,270,0.0,0.0,53,0.00,CLR,OVC,0.00,0.0,WeatherDisplay:10.37,2013-03-19 01:25:00,
2013-03-18 20:30:00,40.5,25.1,29.91,South,180,0.0,0.0,54,0.00,CLR,OVC,0.00,0.0,WeatherDisplay:10.37,2013-03-19 01:30:00,
2013-03-18 20:35:00,40.5,25.5,29.91,SSW,206,0.0,2.0,55,0.00,CLR,OVC,0.00,0.0,WeatherDisplay:10.37,2013-03-19 01:35:00,
2013-03-18 20:40:00,39.9,25.5,29.91,South,180,0.0,0.0,56,0.00,CLR,OVC,0.00,0.0,WeatherDisplay:10.37,2013-03-19 01:40:00,
2013-03-18 20:45:00,39.6,25.6,29.94,South,180,0.0,0.0,57,0.00,CLR,OVC,0.00,0.0,WeatherDisplay:10.37,2013-03-19 01:45:00,
2013-03-18 20:50:00,38.9,25.0,29.94,South,180,0.0,0.0,57,0.00,CLR,OVC,0.00,0.0,WeatherDisplay:10.37,2013-03-19 01:50:00,
2013-03-18 20:55:00,38.7,25.1,29.94,South,180,2.9,2.9,58,0.00,CLR,OVC,0.00,0.0,WeatherDisplay:10.37,2013-03-19 01:55:00,
2013-03-18 21:00:00,38.7,25.1,29.97,South,180,2.0,3.0,58,0.00,CLR,OVC,0.00,0.0,WeatherDisplay:10.37,2013-03-19 02:00:00,